Location: Newark
(7.0858°N, 171.3717°E)
Time: 19:20:33
(UTC+00:00)

Tiros 1 - Pass Details

Date: 01 December 2020
Orbit: 630 x 663 km, 48.4° (Epoch: 18 January)

Event Time Altitude Azimuth Distance (km) Brightness Sun altitude
Rises 01:05:38 0° 238° (WSW) 2,969 10.9 59.3°
Reaches altitude 10° 01:08:11 10° 249° (WSW) 2,062 10.2 59.1°
Maximum altitude 01:12:23 31° 311° (NW) 1,150 8.7 58.7°
Drops below altitude 10° 01:16:37 10° 13° (NNE) 2,068 9.5 58.3°
Sets 01:19:11 0° 24° (NNE) 2,980 10.2 58.0°
